User: anonymous   Login
Location: Unspecified
(0.0000°N, 0.0000°E)
Time: 11:13:16
(UTC+00:00)
Language:

UNK - Orbit

View from above orbital plane
View from above orbital plane
View from above satellite
View from above satellite

Ground track
Ground track

The orbit data is extracted from the following two-line orbital elements,

1 27942U 03042D   18019.93912319 +.00000086 +00000-0 +18140-4 0  9991
2 27942 097.7826 189.8817 0063663 092.3993 268.4509 14.79144240768276
Epoch (UTC): 19 January 2018 22:32:20
Eccentricity: 0.0063663
inclination: 97.7826°
perigee height: 587 km
apogee height: 676 km
right ascension of ascending node: 189.8817°
argument of perigee: 92.3993°
revolutions per day: 14.79144240
mean anomaly at epoch: 268.4509°
orbit number at epoch: 76827

The dashed part of the orbit path shows where the satellite is in the earth's shadow,  

DLR